TimePDT,TemperatureF,Dew PointF,Humidity,Sea Level PressureIn,VisibilityMPH,Wind Direction,Wind SpeedMPH,Gust SpeedMPH,PrecipitationIn,Events,Conditions,WindDirDegrees,DateUTC
12:53 AM,39.0,19.0,45,30.12,10.0,WNW,9.2,-,N/A,,Clear,300,2013-03-15 07:53:00
1:53 AM,34.0,18.0,52,30.13,10.0,East,3.5,-,N/A,,Clear,80,2013-03-15 08:53:00
2:53 AM,30.9,18.0,59,30.13,10.0,WNW,9.2,-,N/A,,Clear,300,2013-03-15 09:53:00
3:53 AM,28.9,16.0,58,30.13,10.0,SE,8.1,-,N/A,,Clear,130,2013-03-15 10:53:00
4:53 AM,26.1,14.0,60,30.14,10.0,Calm,Calm,-,N/A,,Clear,0,2013-03-15 11:53:00
5:53 AM,27.0,15.1,61,30.15,10.0,WNW,4.6,-,N/A,,Clear,300,2013-03-15 12:53:00
6:53 AM,25.0,12.9,60,30.17,10.0,ESE,3.5,-,N/A,,Clear,110,2013-03-15 13:53:00
7:53 AM,30.0,18.0,61,30.18,10.0,NW,5.8,-,N/A,,Clear,320,2013-03-15 14:53:00
8:53 AM,39.0,21.0,49,30.19,10.0,ESE,5.8,-,N/A,,Clear,110,2013-03-15 15:53:00
9:53 AM,46.9,23.0,39,30.16,10.0,Calm,Calm,-,N/A,,Clear,0,2013-03-15 16:53:00
10:53 AM,55.0,23.0,29,30.14,10.0,Calm,Calm,-,N/A,,Clear,0,2013-03-15 17:53:00
11:53 AM,61.0,21.0,21,30.12,10.0,Calm,Calm,-,N/A,,Clear,0,2013-03-15 18:53:00
12:53 PM,64.9,23.0,20,30.09,10.0,WNW,5.8,-,N/A,,Clear,290,2013-03-15 19:53:00
1:53 PM,68.0,12.0,11,30.06,10.0,SSW,6.9,-,N/A,,Clear,210,2013-03-15 20:53:00
2:53 PM,68.0,14.0,12,30.03,10.0,Variable,4.6,-,N/A,,Clear,0,2013-03-15 21:53:00
3:53 PM,72.0,15.1,11,30.01,10.0,SW,5.8,-,N/A,,Clear,230,2013-03-15 22:53:00
4:53 PM,70.0,15.1,12,30.01,10.0,SW,5.8,-,N/A,,Clear,230,2013-03-15 23:53:00
5:53 PM,68.0,10.0,11,30.02,10.0,WNW,8.1,-,N/A,,Clear,290,2013-03-16 00:53:00
6:53 PM,63.0,10.0,13,30.04,10.0,WNW,10.4,-,N/A,,Clear,290,2013-03-16 01:53:00
7:53 PM,55.9,12.0,18,30.06,10.0,NW,10.4,-,N/A,,Clear,310,2013-03-16 02:53:00
8:53 PM,55.9,14.0,19,30.04,10.0,NW,12.7,-,N/A,,Clear,320,2013-03-16 03:53:00
9:53 PM,57.0,18.0,22,30.02,10.0,NW,11.5,-,N/A,,Clear,320,2013-03-16 04:53:00
10:53 PM,55.9,19.0,24,30.03,10.0,East,10.4,-,N/A,,Clear,90,2013-03-16 05:53:00
11:53 PM,55.9,21.0,26,30.00,10.0,North,6.9,-,N/A,,Clear,10,2013-03-16 06:53:00